カタログに戻る

STARLINK-36624

運用中通信VLEO
NORAD 67636·PAYLOAD·🇺🇸 United States

打ち上げ Jan 30, 2026 から Cape Canaveral Space Force Station

Loading…

次のパス (今後24時間)

TLE

最新Source: CelesTrak SupGP

元期: Sep 15, 2026, 03:59 UTC

1 67636C 26020V   26258.16645833  .00058560  00000+0  21211-2 0  2587
2 67636  43.0021 149.3473 0001336 273.8433 162.9995 15.27547824    11

AllMySatでSTARLINK-36624をリアルタイム追跡

Download on the App Store